owner,sensor,date,latitude,longitude,vertical_datum,sea_water_practical_salinity,qcFlag 
SCCF RECON,ioos:station:SCCF:16:1,2010-04-06T17:00:00Z,26.4345,-81.9647,2.465,32.79,1111122 
SCCF RECON,ioos:station:SCCF:16:1,2010-04-06T18:00:00Z,26.4345,-81.9647,2.487,32.76,1111122 
SCCF RECON,ioos:station:SCCF:16:1,2010-04-06T19:00:00Z,26.4345,-81.9647,2.49,32.78,1111122 
SCCF RECON,ioos:station:SCCF:16:1,2010-04-06T20:00:00Z,26.4345,-81.9647,2.557,32.81,1111122 
SCCF RECON,ioos:station:SCCF:16:1,2010-04-06T21:00:00Z,26.4345,-81.9647,2.61,32.88,1111122 
SCCF RECON,ioos:station:SCCF:16:1,2010-04-06T22:00:00Z,26.4345,-81.9647,2.618,32.87,1111122 
SCCF RECON,ioos:station:SCCF:16:1,2010-04-06T23:00:00Z,26.4345,-81.9647,2.611,32.88,1111122 
SCCF RECON,ioos:station:SCCF:16:1,2010-04-07T00:00:00Z,26.4345,-81.9647,2.562,32.92,1111122 
SCCF RECON,ioos:station:SCCF:16:1,2010-04-07T01:00:00Z,26.4345,-81.9647,2.493,32.97,1111122 
SCCF RECON,ioos:station:SCCF:16:1,2010-04-07T02:00:00Z,26.4345,-81.9647,2.43,32.9,1111122 
SCCF RECON,ioos:station:SCCF:16:1,2010-04-07T03:00:00Z,26.4345,-81.9647,2.341,32.78,1111122 
SCCF RECON,ioos:station:SCCF:16:1,2010-04-07T04:00:00Z,26.4345,-81.9647,2.26,32.62,1111122 
SCCF RECON,ioos:station:SCCF:16:1,2010-04-07T05:00:00Z,26.4345,-81.9647,2.145,32.44,1111122 
SCCF RECON,ioos:station:SCCF:16:1,2010-04-07T06:00:00Z,26.4345,-81.9647,2.055,31.94,1111122 
SCCF RECON,ioos:station:SCCF:16:1,2010-04-07T07:00:00Z,26.4345,-81.9647,2.043,31.36,1111122 
SCCF RECON,ioos:station:SCCF:16:1,2010-04-07T08:00:00Z,26.4345,-81.9647,2.11,30.53,1111122 
SCCF RECON,ioos:station:SCCF:16:1,2010-04-07T09:00:00Z,26.4345,-81.9647,2.209,30.81,1111122 
SCCF RECON,ioos:station:SCCF:16:1,2010-04-07T10:00:00Z,26.4345,-81.9647,2.319,32.33,1111122 
SCCF RECON,ioos:station:SCCF:16:1,2010-04-07T11:00:00Z,26.4345,-81.9647,2.405,32.25,1111122 
SCCF RECON,ioos:station:SCCF:16:1,2010-04-07T12:00:00Z,26.4345,-81.9647,2.494,32.65,1111122 
SCCF RECON,ioos:station:SCCF:16:1,2010-04-07T13:00:00Z,26.4345,-81.9647,2.579,32.68,1111122 
SCCF RECON,ioos:station:SCCF:16:1,2010-04-07T14:00:00Z,26.4345,-81.9647,2.633,32.55,1111122 
SCCF RECON,ioos:station:SCCF:16:1,2010-04-07T15:00:00Z,26.4345,-81.9647,2.639,32.68,1111122 
SCCF RECON,ioos:station:SCCF:16:1,2010-04-07T16:00:00Z,26.4345,-81.9647,2.581,32.97,1111122 
SCCF RECON,ioos:station:SCCF:16:1,2010-04-07T17:00:00Z,26.4345,-81.9647,2.513,33.0,1111122 
SCCF RECON,ioos:station:SCCF:16:1,2010-04-07T18:00:00Z,26.4345,-81.9647,2.482,32.94,1111122 
SCCF RECON,ioos:station:SCCF:16:1,2010-04-07T19:00:00Z,26.4345,-81.9647,2.469,32.92,1111122 
SCCF RECON,ioos:station:SCCF:16:1,2010-04-07T20:00:00Z,26.4345,-81.9647,2.494,33.07,1111122 
SCCF RECON,ioos:station:SCCF:16:1,2010-04-07T21:00:00Z,26.4345,-81.9647,2.517,33.01,1111122 
SCCF RECON,ioos:station:SCCF:16:1,2010-04-07T22:00:00Z,26.4345,-81.9647,2.574,33.03,1111122 
SCCF RECON,ioos:station:SCCF:16:1,2010-04-07T23:00:00Z,26.4345,-81.9647,2.6,33.18,1111122 
SCCF RECON,ioos:station:SCCF:16:1,2010-04-08T00:00:00Z,26.4345,-81.9647,2.595,33.23,1111122 
SCCF RECON,ioos:station:SCCF:16:1,2010-04-08T01:00:00Z,26.4345,-81.9647,2.592,33.26,1111122 
SCCF RECON,ioos:station:SCCF:16:1,2010-04-08T02:00:00Z,26.4345,-81.9647,2.536,33.3,1111122 
SCCF RECON,ioos:station:SCCF:16:1,2010-04-08T03:00:00Z,26.4345,-81.9647,2.486,33.17,1111122 
SCCF RECON,ioos:station:SCCF:16:1,2010-04-08T04:00:00Z,26.4345,-81.9647,2.408,33.03,1111122 
SCCF RECON,ioos:station:SCCF:16:1,2010-04-08T05:00:00Z,26.4345,-81.9647,2.311,32.96,1111122 
SCCF RECON,ioos:station:SCCF:16:1,2010-04-08T06:00:00Z,26.4345,-81.9647,2.179,32.9,1111122 
SCCF RECON,ioos:station:SCCF:16:1,2010-04-08T07:00:00Z,26.4345,-81.9647,2.079,32.82,1111122 
SCCF RECON,ioos:station:SCCF:16:1,2010-04-08T08:00:00Z,26.4345,-81.9647,2.065,32.42,1111122 
SCCF RECON,ioos:station:SCCF:16:1,2010-04-08T09:00:00Z,26.4345,-81.9647,2.134,32.27,1111122 
SCCF RECON,ioos:station:SCCF:16:1,2010-04-08T10:00:00Z,26.4345,-81.9647,2.241,32.3,1111122 
SCCF RECON,ioos:station:SCCF:16:1,2010-04-08T11:00:00Z,26.4345,-81.9647,2.352,32.28,1111122 
SCCF RECON,ioos:station:SCCF:16:1,2010-04-08T12:00:00Z,26.4345,-81.9647,2.483,32.74,1111122 
SCCF RECON,ioos:station:SCCF:16:1,2010-04-08T13:00:00Z,26.4345,-81.9647,2.583,32.9,1111122 
SCCF RECON,ioos:station:SCCF:16:1,2010-04-08T14:00:00Z,26.4345,-81.9647,2.641,32.85,1111122 
SCCF RECON,ioos:station:SCCF:16:1,2010-04-08T15:00:00Z,26.4345,-81.9647,2.658,33.03,1111122 
SCCF RECON,ioos:station:SCCF:16:1,2010-04-08T16:00:00Z,26.4345,-81.9647,2.625,33.25,1111122 
SCCF RECON,ioos:station:SCCF:16:1,2010-04-08T17:00:00Z,26.4345,-81.9647,2.557,33.32,1111122 
SCCF RECON,ioos:station:SCCF:16:1,2010-04-08T18:00:00Z,26.4345,-81.9647,2.476,33.31,1111122 
SCCF RECON,ioos:station:SCCF:16:1,2010-04-08T19:00:00Z,26.4345,-81.9647,2.454,33.34,1111122 
SCCF RECON,ioos:station:SCCF:16:1,2010-04-08T20:00:00Z,26.4345,-81.9647,2.448,33.28,1111122 
SCCF RECON,ioos:station:SCCF:16:1,2010-04-08T21:00:00Z,26.4345,-81.9647,2.447,33.25,1111122 
SCCF RECON,ioos:station:SCCF:16:1,2010-04-08T22:00:00Z,26.4345,-81.9647,2.489,33.3,1111122 
SCCF RECON,ioos:station:SCCF:16:1,2010-04-08T23:00:00Z,26.4345,-81.9647,2.573,33.33,1111122 
SCCF RECON,ioos:station:SCCF:16:1,2010-04-09T00:00:00Z,26.4345,-81.9647,2.636,33.36,1111122 
SCCF RECON,ioos:station:SCCF:16:1,2010-04-09T01:00:00Z,26.4345,-81.9647,2.646,33.49,1111122 
SCCF RECON,ioos:station:SCCF:16:1,2010-04-09T02:00:00Z,26.4345,-81.9647,2.652,33.7,1111122 
SCCF RECON,ioos:station:SCCF:16:1,2010-04-09T03:00:00Z,26.4345,-81.9647,2.632,33.73,1111122 
SCCF RECON,ioos:station:SCCF:16:1,2010-04-09T04:00:00Z,26.4345,-81.9647,2.568,33.72,1111122 
SCCF RECON,ioos:station:SCCF:16:1,2010-04-09T05:00:00Z,26.4345,-81.9647,2.492,33.63,1111122 
SCCF RECON,ioos:station:SCCF:16:1,2010-04-09T06:00:00Z,26.4345,-81.9647,2.366,33.33,1111122 
SCCF RECON,ioos:station:SCCF:16:1,2010-04-09T07:00:00Z,26.4345,-81.9647,2.235,33.28,1111122 
SCCF RECON,ioos:station:SCCF:16:1,2010-04-09T08:00:00Z,26.4345,-81.9647,2.177,33.21,1111122 
SCCF RECON,ioos:station:SCCF:16:1,2010-04-09T09:00:00Z,26.4345,-81.9647,2.173,33.09,1111122 
SCCF RECON,ioos:station:SCCF:16:1,2010-04-09T10:00:00Z,26.4345,-81.9647,2.246,33.04,1111122 
SCCF RECON,ioos:station:SCCF:16:1,2010-04-09T11:00:00Z,26.4345,-81.9647,2.29,32.97,1111122 
SCCF RECON,ioos:station:SCCF:16:1,2010-04-09T12:00:00Z,26.4345,-81.9647,2.455,33.05,1111122 
SCCF RECON,ioos:station:SCCF:16:1,2010-04-09T13:00:00Z,26.4345,-81.9647,2.596,33.16,1111122 
SCCF RECON,ioos:station:SCCF:16:1,2010-04-09T14:00:00Z,26.4345,-81.9647,2.68,33.17,1111122 
SCCF RECON,ioos:station:SCCF:16:1,2010-04-09T15:00:00Z,26.4345,-81.9647,2.644,33.23,1111122 
SCCF RECON,ioos:station:SCCF:16:1,2010-04-09T16:00:00Z,26.4345,-81.9647,2.634,33.29,1111122 
SCCF RECON,ioos:station:SCCF:16:1,2010-04-09T17:00:00Z,26.4345,-81.9647,2.569,33.27,1111122 
SCCF RECON,ioos:station:SCCF:16:1,2010-04-09T18:00:00Z,26.4345,-81.9647,2.468,33.29,1111122 
SCCF RECON,ioos:station:SCCF:16:1,2010-04-09T19:00:00Z,26.4345,-81.9647,2.345,33.27,1111122 
SCCF RECON,ioos:station:SCCF:16:1,2010-04-09T20:00:00Z,26.4345,-81.9647,2.271,33.06,1111122 
SCCF RECON,ioos:station:SCCF:16:1,2010-04-09T21:00:00Z,26.4345,-81.9647,2.297,33.11,1111122 
SCCF RECON,ioos:station:SCCF:16:1,2010-04-09T22:00:00Z,26.4345,-81.9647,2.361,33.1,1111122 
SCCF RECON,ioos:station:SCCF:16:1,2010-04-09T23:00:00Z,26.4345,-81.9647,2.423,33.2,1111122 
SCCF RECON,ioos:station:SCCF:16:1,2010-04-10T00:00:00Z,26.4345,-81.9647,2.46,33.38,1111122 
SCCF RECON,ioos:station:SCCF:16:1,2010-04-10T01:00:00Z,26.4345,-81.9647,2.531,33.61,1111122 
SCCF RECON,ioos:station:SCCF:16:1,2010-04-10T02:00:00Z,26.4345,-81.9647,2.562,33.63,1111122 
SCCF RECON,ioos:station:SCCF:16:1,2010-04-10T03:00:00Z,26.4345,-81.9647,2.581,33.6,1111122 
SCCF RECON,ioos:station:SCCF:16:1,2010-04-10T04:00:00Z,26.4345,-81.9647,2.534,33.62,1111122 
SCCF RECON,ioos:station:SCCF:16:1,2010-04-10T05:00:00Z,26.4345,-81.9647,2.409,33.2,1111122 
SCCF RECON,ioos:station:SCCF:16:1,2010-04-10T06:00:00Z,26.4345,-81.9647,2.289,32.73,1111122 
SCCF RECON,ioos:station:SCCF:16:1,2010-04-10T07:00:00Z,26.4345,-81.9647,2.178,32.77,1111122 
SCCF RECON,ioos:station:SCCF:16:1,2010-04-10T08:00:00Z,26.4345,-81.9647,2.061,32.38,1111122 
SCCF RECON,ioos:station:SCCF:16:1,2010-04-10T09:00:00Z,26.4345,-81.9647,2.005,31.75,1111122 
SCCF RECON,ioos:station:SCCF:16:1,2010-04-10T10:00:00Z,26.4345,-81.9647,2.088,31.86,1111122 
SCCF RECON,ioos:station:SCCF:16:1,2010-04-10T11:00:00Z,26.4345,-81.9647,2.187,30.95,1111122 
SCCF RECON,ioos:station:SCCF:16:1,2010-04-10T12:00:00Z,26.4345,-81.9647,2.338,31.38,1111122 
SCCF RECON,ioos:station:SCCF:16:1,2010-04-10T13:00:00Z,26.4345,-81.9647,2.407,31.39,1111122 
SCCF RECON,ioos:station:SCCF:16:1,2010-04-10T14:00:00Z,26.4345,-81.9647,2.527,31.91,1111122 
SCCF RECON,ioos:station:SCCF:16:1,2010-04-10T15:00:00Z,26.4345,-81.9647,2.587,32.67,1111122 
SCCF RECON,ioos:station:SCCF:16:1,2010-04-10T16:00:00Z,26.4345,-81.9647,2.584,33.02,1111122 
SCCF RECON,ioos:station:SCCF:16:1,2010-04-10T17:00:00Z,26.4345,-81.9647,2.531,33.08,1111122 
SCCF RECON,ioos:station:SCCF:16:1,2010-04-10T18:00:00Z,26.4345,-81.9647,2.458,33.1,1111122 
SCCF RECON,ioos:station:SCCF:16:1,2010-04-10T19:00:00Z,26.4345,-81.9647,2.358,33.05,1111122 
SCCF RECON,ioos:station:SCCF:16:1,2010-04-10T20:00:00Z,26.4345,-81.9647,2.262,32.97,1111122 
SCCF RECON,ioos:station:SCCF:16:1,2010-04-10T21:00:00Z,26.4345,-81.9647,2.227,32.93,1111122 
SCCF RECON,ioos:station:SCCF:16:1,2010-04-10T22:00:00Z,26.4345,-81.9647,2.234,32.89,1111122 
SCCF RECON,ioos:station:SCCF:16:1,2010-04-10T23:00:00Z,26.4345,-81.9647,2.302,32.75,1111122 
SCCF RECON,ioos:station:SCCF:16:1,2010-04-11T00:00:00Z,26.4345,-81.9647,2.404,32.87,1111122 
SCCF RECON,ioos:station:SCCF:16:1,2010-04-11T01:00:00Z,26.4345,-81.9647,2.513,32.96,1111122 
SCCF RECON,ioos:station:SCCF:16:1,2010-04-11T02:00:00Z,26.4345,-81.9647,2.555,32.99,1111122 
SCCF RECON,ioos:station:SCCF:16:1,2010-04-11T03:00:00Z,26.4345,-81.9647,2.581,33.15,1111122 
SCCF RECON,ioos:station:SCCF:16:1,2010-04-11T04:00:00Z,26.4345,-81.9647,2.587,33.4,1111122 
SCCF RECON,ioos:station:SCCF:16:1,2010-04-11T05:00:00Z,26.4345,-81.9647,2.517,33.41,1111122 
SCCF RECON,ioos:station:SCCF:16:1,2010-04-11T06:00:00Z,26.4345,-81.9647,2.357,33.4,1111122 
SCCF RECON,ioos:station:SCCF:16:1,2010-04-11T07:00:00Z,26.4345,-81.9647,2.249,33.39,1111122 
SCCF RECON,ioos:station:SCCF:16:1,2010-04-11T08:00:00Z,26.4345,-81.9647,2.163,33.33,1111122 
SCCF RECON,ioos:station:SCCF:16:1,2010-04-11T09:00:00Z,26.4345,-81.9647,2.1,33.07,1111122 
SCCF RECON,ioos:station:SCCF:16:1,2010-04-11T10:00:00Z,26.4345,-81.9647,2.05,32.81,1111122 
SCCF RECON,ioos:station:SCCF:16:1,2010-04-11T11:00:00Z,26.4345,-81.9647,2.155,32.54,1111122 
SCCF RECON,ioos:station:SCCF:16:1,2010-04-11T12:00:00Z,26.4345,-81.9647,2.388,32.58,1111122 
SCCF RECON,ioos:station:SCCF:16:1,2010-04-11T13:00:00Z,26.4345,-81.9647,2.51,32.91,1111122 
SCCF RECON,ioos:station:SCCF:16:1,2010-04-11T14:00:00Z,26.4345,-81.9647,2.577,33.21,1111122 
SCCF RECON,ioos:station:SCCF:16:1,2010-04-11T15:00:00Z,26.4345,-81.9647,2.665,33.4,1111122 
SCCF RECON,ioos:station:SCCF:16:1,2010-04-11T16:00:00Z,26.4345,-81.9647,2.737,33.07,1111122 
SCCF RECON,ioos:station:SCCF:16:1,2010-04-11T17:00:00Z,26.4345,-81.9647,2.405,32.82,1111122 
SCCF RECON,ioos:station:SCCF:16:1,2010-04-11T18:00:00Z,26.4345,-81.9647,2.219,32.46,1111122 
SCCF RECON,ioos:station:SCCF:16:1,2010-04-11T19:00:00Z,26.4345,-81.9647,2.202,31.87,1111122 
SCCF RECON,ioos:station:SCCF:16:1,2010-04-11T20:00:00Z,26.4345,-81.9647,2.095,31.26,1111122 
SCCF RECON,ioos:station:SCCF:16:1,2010-04-11T21:00:00Z,26.4345,-81.9647,2.04,30.81,1111122 
SCCF RECON,ioos:station:SCCF:16:1,2010-04-11T22:00:00Z,26.4345,-81.9647,2.038,30.0,1111122 
SCCF RECON,ioos:station:SCCF:16:1,2010-04-11T23:00:00Z,26.4345,-81.9647,2.069,29.08,1111122 
SCCF RECON,ioos:station:SCCF:16:1,2010-04-12T00:00:00Z,26.4345,-81.9647,2.224,30.8,1111122 
SCCF RECON,ioos:station:SCCF:16:1,2010-04-12T01:00:00Z,26.4345,-81.9647,2.405,31.44,1111122 
SCCF RECON,ioos:station:SCCF:16:1,2010-04-12T02:00:00Z,26.4345,-81.9647,2.504,32.27,1111122 
SCCF RECON,ioos:station:SCCF:16:1,2010-04-12T03:00:00Z,26.4345,-81.9647,2.509,31.92,1111122 
SCCF RECON,ioos:station:SCCF:16:1,2010-04-12T04:00:00Z,26.4345,-81.9647,2.576,32.35,1111122 
SCCF RECON,ioos:station:SCCF:16:1,2010-04-12T05:00:00Z,26.4345,-81.9647,2.587,32.06,1111122 
SCCF RECON,ioos:station:SCCF:16:1,2010-04-12T06:00:00Z,26.4345,-81.9647,2.481,32.36,1111122 
SCCF RECON,ioos:station:SCCF:16:1,2010-04-12T07:00:00Z,26.4345,-81.9647,2.283,32.53,1111122 
SCCF RECON,ioos:station:SCCF:16:1,2010-04-12T08:00:00Z,26.4345,-81.9647,2.186,32.47,1111122 
SCCF RECON,ioos:station:SCCF:16:1,2010-04-12T09:00:00Z,26.4345,-81.9647,2.139,31.66,1111122 
SCCF RECON,ioos:station:SCCF:16:1,2010-04-12T10:00:00Z,26.4345,-81.9647,2.067,30.91,1111122 
SCCF RECON,ioos:station:SCCF:16:1,2010-04-12T11:00:00Z,26.4345,-81.9647,2.082,30.54,1111122 
SCCF RECON,ioos:station:SCCF:16:1,2010-04-12T12:00:00Z,26.4345,-81.9647,2.167,30.45,1111122 
SCCF RECON,ioos:station:SCCF:16:1,2010-04-12T13:00:00Z,26.4345,-81.9647,2.344,30.65,1111122 
SCCF RECON,ioos:station:SCCF:16:1,2010-04-12T14:00:00Z,26.4345,-81.9647,2.478,31.28,1111122 
SCCF RECON,ioos:station:SCCF:16:1,2010-04-12T15:00:00Z,26.4345,-81.9647,2.572,31.35,1111122 
SCCF RECON,ioos:station:SCCF:16:1,2010-04-12T16:00:00Z,26.4345,-81.9647,2.602,31.43,1111122 
SCCF RECON,ioos:station:SCCF:16:1,2010-04-12T17:00:00Z,26.4345,-81.9647,2.61,31.97,1111122 
SCCF RECON,ioos:station:SCCF:16:1,2010-04-12T18:00:00Z,26.4345,-81.9647,2.482,32.26,1111122 
SCCF RECON,ioos:station:SCCF:16:1,2010-04-12T19:00:00Z,26.4345,-81.9647,2.326,32.35,1111122 
SCCF RECON,ioos:station:SCCF:16:1,2010-04-12T20:00:00Z,26.4345,-81.9647,2.183,32.36,1111122 
SCCF RECON,ioos:station:SCCF:16:1,2010-04-12T21:00:00Z,26.4345,-81.9647,2.064,31.76,1111122 
SCCF RECON,ioos:station:SCCF:16:1,2010-04-12T22:00:00Z,26.4345,-81.9647,1.977,30.99,1111122 
SCCF RECON,ioos:station:SCCF:16:1,2010-04-12T23:00:00Z,26.4345,-81.9647,1.974,30.51,1111122 
SCCF RECON,ioos:station:SCCF:16:1,2010-04-13T00:00:00Z,26.4345,-81.9647,2.109,30.06,1111122 
SCCF RECON,ioos:station:SCCF:16:1,2010-04-13T01:00:00Z,26.4345,-81.9647,2.283,30.16,1111122 
SCCF RECON,ioos:station:SCCF:16:1,2010-04-13T02:00:00Z,26.4345,-81.9647,2.439,30.82,1111122 
SCCF RECON,ioos:station:SCCF:16:1,2010-04-13T03:00:00Z,26.4345,-81.9647,2.558,31.39,1111122 
SCCF RECON,ioos:station:SCCF:16:1,2010-04-13T04:00:00Z,26.4345,-81.9647,2.621,32.25,1111122 
SCCF RECON,ioos:station:SCCF:16:1,2010-04-13T05:00:00Z,26.4345,-81.9647,2.617,32.75,1111122 
SCCF RECON,ioos:station:SCCF:16:1,2010-04-13T06:00:00Z,26.4345,-81.9647,2.513,32.84,1111122 
SCCF RECON,ioos:station:SCCF:16:1,2010-04-13T07:00:00Z,26.4345,-81.9647,2.371,32.84,1111122 
SCCF RECON,ioos:station:SCCF:16:1,2010-04-13T08:00:00Z,26.4345,-81.9647,2.291,32.81,1111122 
SCCF RECON,ioos:station:SCCF:16:1,2010-04-13T09:00:00Z,26.4345,-81.9647,2.236,32.76,1111122 
SCCF RECON,ioos:station:SCCF:16:1,2010-04-13T10:00:00Z,26.4345,-81.9647,2.175,31.99,1111122 
SCCF RECON,ioos:station:SCCF:16:1,2010-04-13T11:00:00Z,26.4345,-81.9647,2.101,31.12,1111122 
SCCF RECON,ioos:station:SCCF:16:1,2010-04-13T12:00:00Z,26.4345,-81.9647,2.165,30.68,1111122 
SCCF RECON,ioos:station:SCCF:16:1,2010-04-13T13:00:00Z,26.4345,-81.9647,2.342,31.11,1111122 
SCCF RECON,ioos:station:SCCF:16:1,2010-04-13T14:00:00Z,26.4345,-81.9647,2.542,31.02,1111122 
SCCF RECON,ioos:station:SCCF:16:1,2010-04-13T15:00:00Z,26.4345,-81.9647,2.678,31.39,1111122 
SCCF RECON,ioos:station:SCCF:16:1,2010-04-13T16:00:00Z,26.4345,-81.9647,2.711,32.34,1111122 
SCCF RECON,ioos:station:SCCF:16:1,2010-04-13T17:00:00Z,26.4345,-81.9647,2.686,32.95,1111122 
SCCF RECON,ioos:station:SCCF:16:1,2010-04-13T18:00:00Z,26.4345,-81.9647,2.572,33.11,1111122 
SCCF RECON,ioos:station:SCCF:16:1,2010-04-13T19:00:00Z,26.4345,-81.9647,2.387,33.09,1111122 
SCCF RECON,ioos:station:SCCF:16:1,2010-04-13T20:00:00Z,26.4345,-81.9647,2.213,32.97,1111122 
SCCF RECON,ioos:station:SCCF:16:1,2010-04-13T21:00:00Z,26.4345,-81.9647,2.125,32.84,1111122 
SCCF RECON,ioos:station:SCCF:16:1,2010-04-13T22:00:00Z,26.4345,-81.9647,2.004,32.01,1111122 
SCCF RECON,ioos:station:SCCF:16:1,2010-04-13T23:00:00Z,26.4345,-81.9647,1.923,31.18,1111122 
SCCF RECON,ioos:station:SCCF:16:1,2010-04-14T00:00:00Z,26.4345,-81.9647,2.015,30.56,1111122 
SCCF RECON,ioos:station:SCCF:16:1,2010-04-14T01:00:00Z,26.4345,-81.9647,2.199,30.49,1111122 
SCCF RECON,ioos:station:SCCF:16:1,2010-04-14T02:00:00Z,26.4345,-81.9647,2.389,30.85,1111122 
SCCF RECON,ioos:station:SCCF:16:1,2010-04-14T03:00:00Z,26.4345,-81.9647,2.497,31.78,1111122 
SCCF RECON,ioos:station:SCCF:16:1,2010-04-14T04:00:00Z,26.4345,-81.9647,2.589,32.69,1111122 
SCCF RECON,ioos:station:SCCF:16:1,2010-04-14T05:00:00Z,26.4345,-81.9647,2.635,33.03,1111122 
SCCF RECON,ioos:station:SCCF:16:1,2010-04-14T06:00:00Z,26.4345,-81.9647,2.586,33.06,1111122 
SCCF RECON,ioos:station:SCCF:16:1,2010-04-14T07:00:00Z,26.4345,-81.9647,2.472,33.06,1111122 
SCCF RECON,ioos:station:SCCF:16:1,2010-04-14T08:00:00Z,26.4345,-81.9647,2.35,33.04,1111122 
SCCF RECON,ioos:station:SCCF:16:1,2010-04-14T09:00:00Z,26.4345,-81.9647,2.285,33.03,1111122 
SCCF RECON,ioos:station:SCCF:16:1,2010-04-14T10:00:00Z,26.4345,-81.9647,2.241,33.05,1111122 
SCCF RECON,ioos:station:SCCF:16:1,2010-04-14T11:00:00Z,26.4345,-81.9647,2.223,32.67,1111122 
SCCF RECON,ioos:station:SCCF:16:1,2010-04-14T12:00:00Z,26.4345,-81.9647,2.3,31.75,1111122 
SCCF RECON,ioos:station:SCCF:16:1,2010-04-14T13:00:00Z,26.4345,-81.9647,2.403,32.54,1111122 
SCCF RECON,ioos:station:SCCF:16:1,2010-04-14T14:00:00Z,26.4345,-81.9647,2.523,32.17,1111122 
SCCF RECON,ioos:station:SCCF:16:1,2010-04-14T15:00:00Z,26.4345,-81.9647,2.644,32.78,1111122 
SCCF RECON,ioos:station:SCCF:16:1,2010-04-14T16:00:00Z,26.4345,-81.9647,2.726,33.08,1111122 
SCCF RECON,ioos:station:SCCF:16:1,2010-04-14T17:00:00Z,26.4345,-81.9647,2.74,33.11,1111122 
SCCF RECON,ioos:station:SCCF:16:1,2010-04-14T18:00:00Z,26.4345,-81.9647,2.667,33.12,1111122 
SCCF RECON,ioos:station:SCCF:16:1,2010-04-14T19:00:00Z,26.4345,-81.9647,2.531,33.11,1111122 
SCCF RECON,ioos:station:SCCF:16:1,2010-04-14T20:00:00Z,26.4345,-81.9647,2.311,33.0,1111122 
SCCF RECON,ioos:station:SCCF:16:1,2010-04-14T21:00:00Z,26.4345,-81.9647,2.118,33.01,1111122 
SCCF RECON,ioos:station:SCCF:16:1,2010-04-14T22:00:00Z,26.4345,-81.9647,1.932,32.99,1111122 
SCCF RECON,ioos:station:SCCF:16:1,2010-04-14T23:00:00Z,26.4345,-81.9647,1.849,32.7,1111122 
SCCF RECON,ioos:station:SCCF:16:1,2010-04-15T00:00:00Z,26.4345,-81.9647,1.83,31.03,1111122 
SCCF RECON,ioos:station:SCCF:16:1,2010-04-15T01:00:00Z,26.4345,-81.9647,1.937,30.51,1111122 
SCCF RECON,ioos:station:SCCF:16:1,2010-04-15T02:00:00Z,26.4345,-81.9647,2.132,30.48,1111122 
SCCF RECON,ioos:station:SCCF:16:1,2010-04-15T03:00:00Z,26.4345,-81.9647,2.306,31.78,1111122 
SCCF RECON,ioos:station:SCCF:16:1,2010-04-15T04:00:00Z,26.4345,-81.9647,2.42,32.55,1111122 
SCCF RECON,ioos:station:SCCF:16:1,2010-04-15T05:00:00Z,26.4345,-81.9647,2.478,33.01,1111122 
SCCF RECON,ioos:station:SCCF:16:1,2010-04-15T06:00:00Z,26.4345,-81.9647,2.489,33.01,1111122 
SCCF RECON,ioos:station:SCCF:16:1,2010-04-15T07:00:00Z,26.4345,-81.9647,2.473,33.05,1111122 
SCCF RECON,ioos:station:SCCF:16:1,2010-04-15T08:00:00Z,26.4345,-81.9647,2.403,33.09,1111122 
SCCF RECON,ioos:station:SCCF:16:1,2010-04-15T09:00:00Z,26.4345,-81.9647,2.299,33.09,1111122 
SCCF RECON,ioos:station:SCCF:16:1,2010-04-15T10:00:00Z,26.4345,-81.9647,2.247,33.06,1111122 
SCCF RECON,ioos:station:SCCF:16:1,2010-04-15T11:00:00Z,26.4345,-81.9647,2.243,33.02,1111122 
SCCF RECON,ioos:station:SCCF:16:1,2010-04-15T12:00:00Z,26.4345,-81.9647,2.304,33.01,1111122 
SCCF RECON,ioos:station:SCCF:16:1,2010-04-15T13:00:00Z,26.4345,-81.9647,2.388,33.02,1111122 
SCCF RECON,ioos:station:SCCF:16:1,2010-04-15T14:00:00Z,26.4345,-81.9647,2.532,33.07,1111122 
SCCF RECON,ioos:station:SCCF:16:1,2010-04-15T15:00:00Z,26.4345,-81.9647,2.647,33.08,1111122 
SCCF RECON,ioos:station:SCCF:16:1,2010-04-15T16:00:00Z,26.4345,-81.9647,2.768,33.21,1111122 
SCCF RECON,ioos:station:SCCF:16:1,2010-04-15T17:00:00Z,26.4345,-81.9647,2.774,33.35,1111122 
SCCF RECON,ioos:station:SCCF:16:1,2010-04-15T18:00:00Z,26.4345,-81.9647,2.76,33.33,1111122 
SCCF RECON,ioos:station:SCCF:16:1,2010-04-15T19:00:00Z,26.4345,-81.9647,2.662,33.29,1111122 
SCCF RECON,ioos:station:SCCF:16:1,2010-04-15T20:00:00Z,26.4345,-81.9647,2.496,33.18,1111122 
SCCF RECON,ioos:station:SCCF:16:1,2010-04-15T21:00:00Z,26.4345,-81.9647,2.341,33.09,1111122 
SCCF RECON,ioos:station:SCCF:16:1,2010-04-15T22:00:00Z,26.4345,-81.9647,2.134,33.05,1111122 
SCCF RECON,ioos:station:SCCF:16:1,2010-04-15T23:00:00Z,26.4345,-81.9647,1.954,33.02,1111122 
SCCF RECON,ioos:station:SCCF:16:1,2010-04-16T00:00:00Z,26.4345,-81.9647,1.874,32.97,1111122 
SCCF RECON,ioos:station:SCCF:16:1,2010-04-16T01:00:00Z,26.4345,-81.9647,1.94,32.27,1111122 
SCCF RECON,ioos:station:SCCF:16:1,2010-04-16T02:00:00Z,26.4345,-81.9647,2.166,31.78,1111122 
SCCF RECON,ioos:station:SCCF:16:1,2010-04-16T03:00:00Z,26.4345,-81.9647,2.353,32.24,1111122 
SCCF RECON,ioos:station:SCCF:16:1,2010-04-16T04:00:00Z,26.4345,-81.9647,2.494,32.62,1111122 
SCCF RECON,ioos:station:SCCF:16:1,2010-04-16T05:00:00Z,26.4345,-81.9647,2.562,33.0,1111122 
SCCF RECON,ioos:station:SCCF:16:1,2010-04-16T06:00:00Z,26.4345,-81.9647,2.599,33.0,1111122 
SCCF RECON,ioos:station:SCCF:16:1,2010-04-16T07:00:00Z,26.4345,-81.9647,2.573,32.98,1111122 
SCCF RECON,ioos:station:SCCF:16:1,2010-04-16T08:00:00Z,26.4345,-81.9647,2.529,33.02,1111122 
SCCF RECON,ioos:station:SCCF:16:1,2010-04-16T09:00:00Z,26.4345,-81.9647,2.452,33.05,1111122 
SCCF RECON,ioos:station:SCCF:16:1,2010-04-16T10:00:00Z,26.4345,-81.9647,2.381,33.04,1111122 
SCCF RECON,ioos:station:SCCF:16:1,2010-04-16T11:00:00Z,26.4345,-81.9647,2.325,33.02,1111122 
SCCF RECON,ioos:station:SCCF:16:1,2010-04-16T12:00:00Z,26.4345,-81.9647,2.307,32.97,1111122 
SCCF RECON,ioos:station:SCCF:16:1,2010-04-16T13:00:00Z,26.4345,-81.9647,2.374,32.93,1111122 
SCCF RECON,ioos:station:SCCF:16:1,2010-04-16T14:00:00Z,26.4345,-81.9647,2.445,32.93,1111122 
SCCF RECON,ioos:station:SCCF:16:1,2010-04-16T15:00:00Z,26.4345,-81.9647,2.591,32.99,1111122 
SCCF RECON,ioos:station:SCCF:16:1,2010-04-16T16:00:00Z,26.4345,-81.9647,2.727,33.05,1111122 
SCCF RECON,ioos:station:SCCF:16:1,2010-04-16T17:00:00Z,26.4345,-81.9647,2.733,33.26,1111122 
SCCF RECON,ioos:station:SCCF:16:1,2010-04-16T18:00:00Z,26.4345,-81.9647,2.703,33.43,1111122 
SCCF RECON,ioos:station:SCCF:16:1,2010-04-16T19:00:00Z,26.4345,-81.9647,2.649,33.44,1111122 
SCCF RECON,ioos:station:SCCF:16:1,2010-04-16T20:00:00Z,26.4345,-81.9647,2.513,33.43,1111122 
SCCF RECON,ioos:station:SCCF:16:1,2010-04-16T21:00:00Z,26.4345,-81.9647,2.35,33.35,1111122 
SCCF RECON,ioos:station:SCCF:16:1,2010-04-16T22:00:00Z,26.4345,-81.9647,2.126,33.09,1111122 
SCCF RECON,ioos:station:SCCF:16:1,2010-04-16T23:00:00Z,26.4345,-81.9647,1.945,32.95,1111122 
SCCF RECON,ioos:station:SCCF:16:1,2010-04-17T00:00:00Z,26.4345,-81.9647,1.829,32.63,1111122 
SCCF RECON,ioos:station:SCCF:16:1,2010-04-17T01:00:00Z,26.4345,-81.9647,1.766,32.42,1111122 
SCCF RECON,ioos:station:SCCF:16:1,2010-04-17T02:00:00Z,26.4345,-81.9647,1.864,31.53,1111122 
SCCF RECON,ioos:station:SCCF:16:1,2010-04-17T03:00:00Z,26.4345,-81.9647,2.034,31.16,1111122 
SCCF RECON,ioos:station:SCCF:16:1,2010-04-17T04:00:00Z,26.4345,-81.9647,2.26,31.47,1111122 
SCCF RECON,ioos:station:SCCF:16:1,2010-04-17T05:00:00Z,26.4345,-81.9647,2.451,32.33,1111122 
SCCF RECON,ioos:station:SCCF:16:1,2010-04-17T06:00:00Z,26.4345,-81.9647,2.544,32.45,1111122 
SCCF RECON,ioos:station:SCCF:16:1,2010-04-17T07:00:00Z,26.4345,-81.9647,2.538,32.88,1111122 
SCCF RECON,ioos:station:SCCF:16:1,2010-04-17T08:00:00Z,26.4345,-81.9647,2.539,32.96,1111122 
SCCF RECON,ioos:station:SCCF:16:1,2010-04-17T09:00:00Z,26.4345,-81.9647,2.441,33.01,1111122 